Hourly Weather Cilitl

Today, 11 July, Saturday

Time Temperature Precipitation Wind Pressure Humidity
00:00 +12°C° 0 mm 0 mps 611 mmHg 89%
01:00 +11°C° 0 mm 0 mps 611 mmHg 89%
02:00 +11°C° 0 mm 0 mps 611 mmHg 89%
03:00 +11°C° 0 mm 0 mps 611 mmHg 89%
04:00 +11°C° 0 mm 0 mps 611 mmHg 88%
05:00 +12°C° 0 mm 0 mps 611 mmHg 87%
06:00 +12°C° 0 mm 0 mps 612 mmHg 85%
07:00 +13°C° 0.3 mm 0 mps 612 mmHg 81%
08:00 +15°C° 0.3 mm 1 mps 612 mmHg 78%
09:00 +18°C° 0.3 mm 1 mps 612 mmHg 74%
10:00 +18°C° 1.2 mm 1 mps 613 mmHg 74%
11:00 +18°C° 1.2 mm 1 mps 613 mmHg 74%
12:00 +18°C° 1.2 mm 2 mps 613 mmHg 73%
13:00 +18°C° 1.4 mm 1 mps 612 mmHg 75%
14:00 +18°C° 1.4 mm 1 mps 612 mmHg 77%
15:00 +16°C° 1.4 mm 1 mps 611 mmHg 79%
16:00 +16°C° 0.8 mm 1 mps 611 mmHg 79%
17:00 +15°C° 0.8 mm 0 mps 611 mmHg 80%
18:00 +15°C° 0.8 mm 0 mps 611 mmHg 80%
19:00 +14°C° 0.2 mm 0 mps 610 mmHg 81%
20:00 +14°C° 0.2 mm 1 mps 610 mmHg 81%
21:00 +13°C° 0.2 mm 1 mps 610 mmHg 82%
22:00 +13°C° 0 mm 1 mps 609 mmHg 82%
23:00 +13°C° 0 mm 1 mps 609 mmHg 81%

Tomorrow, 12 July, Sunday

Time Temperature Precipitation Wind Pressure Humidity
00:00 +12°C° 0 mm 1 mps 609 mmHg 81%
01:00 +12°C° 0 mm 1 mps 609 mmHg 81%
02:00 +12°C° 0 mm 1 mps 608 mmHg 81%
03:00 +12°C° 0 mm 1 mps 608 mmHg 80%
04:00 +12°C° 0 mm 1 mps 608 mmHg 79%
05:00 +13°C° 0 mm 1 mps 608 mmHg 77%
06:00 +14°C° 0 mm 1 mps 608 mmHg 75%
07:00 +16°C° 0 mm 1 mps 609 mmHg 67%
08:00 +17°C° 0 mm 2 mps 610 mmHg 59%
09:00 +19°C° 0 mm 2 mps 611 mmHg 51%
10:00 +20°C° 0 mm 2 mps 611 mmHg 48%
11:00 +21°C° 0 mm 3 mps 611 mmHg 44%
12:00 +22°C° 0 mm 3 mps 611 mmHg 40%
13:00 +22°C° 0 mm 3 mps 611 mmHg 42%
14:00 +22°C° 0 mm 3 mps 610 mmHg 43%
15:00 +22°C° 0 mm 3 mps 610 mmHg 45%
16:00 +21°C° 0 mm 2 mps 609 mmHg 50%
17:00 +20°C° 0 mm 2 mps 609 mmHg 54%
18:00 +20°C° 0 mm 1 mps 608 mmHg 59%
19:00 +19°C° 0 mm 1 mps 607 mmHg 59%
20:00 +16°C° 0 mm 1 mps 607 mmHg 59%
21:00 +15°C° 0 mm 1 mps 606 mmHg 59%
22:00 +14°C° 0 mm 1 mps 606 mmHg 61%
23:00 +14°C° 0 mm 1 mps 606 mmHg 63%

Day after tomorrow, 13 July, Monday

Time Temperature Precipitation Wind Pressure Humidity
00:00 +13°C° 0 mm 1 mps 605 mmHg 64%
01:00 +13°C° 0 mm 1 mps 605 mmHg 65%
02:00 +13°C° 0 mm 1 mps 605 mmHg 66%
03:00 +13°C° 0 mm 1 mps 604 mmHg 67%
04:00 +14°C° 0 mm 1 mps 605 mmHg 68%
05:00 +14°C° 0 mm 1 mps 605 mmHg 70%
06:00 +15°C° 0 mm 1 mps 605 mmHg 71%
07:00 +16°C° 0 mm 1 mps 606 mmHg 66%
08:00 +19°C° 0 mm 1 mps 606 mmHg 61%
09:00 +20°C° 0 mm 1 mps 607 mmHg 56%
10:00 +20°C° 0.4 mm 1 mps 606 mmHg 59%
11:00 +20°C° 0.4 mm 1 mps 606 mmHg 62%
12:00 +20°C° 0.4 mm 1 mps 606 mmHg 64%
13:00 +20°C° 0.6 mm 1 mps 606 mmHg 64%
14:00 +20°C° 0.6 mm 1 mps 606 mmHg 63%
15:00 +20°C° 0.6 mm 2 mps 606 mmHg 63%
16:00 +19°C° 0.8 mm 2 mps 606 mmHg 65%
17:00 +20°C° 0.8 mm 1 mps 606 mmHg 67%
18:00 +20°C° 0.8 mm 1 mps 606 mmHg 69%
19:00 +18°C° 0.7 mm 1 mps 605 mmHg 74%
20:00 +15°C° 0.7 mm 1 mps 605 mmHg 79%
21:00 +14°C° 0.7 mm 1 mps 605 mmHg 84%
22:00 +14°C° 0.5 mm 1 mps 605 mmHg 84%
23:00 +13°C° 0.5 mm 1 mps 605 mmHg 84%

14 July, Tuesday

Time Temperature Precipitation Wind Pressure Humidity
00:00 +13°C° 0.5 mm 1 mps 604 mmHg 84%
01:00 +13°C° 0 mm 1 mps 604 mmHg 84%
02:00 +13°C° 0 mm 1 mps 604 mmHg 84%
03:00 +12°C° 0 mm 1 mps 604 mmHg 84%
04:00 +13°C° 0 mm 1 mps 605 mmHg 83%
05:00 +14°C° 0 mm 1 mps 605 mmHg 83%
06:00 +15°C° 0 mm 1 mps 606 mmHg 82%
07:00 +15°C° 0.3 mm 1 mps 606 mmHg 83%
08:00 +15°C° 0.3 mm 1 mps 607 mmHg 83%
09:00 +15°C° 0.3 mm 1 mps 607 mmHg 83%
10:00 +15°C° 0.6 mm 1 mps 607 mmHg 84%
11:00 +15°C° 0.6 mm 1 mps 607 mmHg 86%
12:00 +15°C° 0.6 mm 1 mps 608 mmHg 87%
13:00 +15°C° 0.8 mm 1 mps 608 mmHg 85%
14:00 +16°C° 0.8 mm 1 mps 608 mmHg 83%
15:00 +16°C° 0.8 mm 1 mps 608 mmHg 81%
16:00 +16°C° 0.8 mm 1 mps 608 mmHg 83%
17:00 +16°C° 0.8 mm 1 mps 608 mmHg 85%
18:00 +15°C° 0.8 mm 1 mps 608 mmHg 87%
19:00 +14°C° 0.2 mm 2 mps 608 mmHg 87%
20:00 +14°C° 0.2 mm 2 mps 608 mmHg 86%
21:00 +13°C° 0.2 mm 2 mps 608 mmHg 86%
22:00 +13°C° 0 mm 1 mps 608 mmHg 85%
23:00 +13°C° 0 mm 1 mps 608 mmHg 85%

15 July, Wednesday

Time Temperature Precipitation Wind Pressure Humidity
00:00 +12°C° 0 mm 1 mps 608 mmHg 85%
01:00 +12°C° 0 mm 1 mps 608 mmHg 86%
02:00 +12°C° 0 mm 1 mps 608 mmHg 88%
03:00 +12°C° 0 mm 1 mps 608 mmHg 89%
04:00 +12°C° 0.1 mm 1 mps 609 mmHg 89%
05:00 +13°C° 0.1 mm 1 mps 609 mmHg 89%
06:00 +12°C° 0.1 mm 0 mps 610 mmHg 89%
07:00 +14°C° 0.1 mm 1 mps 610 mmHg 85%
08:00 +15°C° 0.1 mm 1 mps 611 mmHg 81%
09:00 +16°C° 0.1 mm 2 mps 611 mmHg 77%
10:00 +17°C° 0.3 mm 2 mps 611 mmHg 76%
11:00 +17°C° 0.3 mm 2 mps 611 mmHg 75%
12:00 +17°C° 0.3 mm 2 mps 611 mmHg 74%
13:00 +17°C° 0.7 mm 2 mps 611 mmHg 75%
14:00 +17°C° 0.7 mm 2 mps 611 mmHg 76%
15:00 +17°C° 0.7 mm 2 mps 611 mmHg 77%
16:00 +18°C° 0.6 mm 1 mps 611 mmHg 80%
17:00 +16°C° 0.6 mm 1 mps 610 mmHg 83%
18:00 +15°C° 0.6 mm 1 mps 610 mmHg 86%
19:00 +15°C° 0.2 mm 1 mps 610 mmHg 88%
20:00 +14°C° 0.2 mm 1 mps 610 mmHg 90%
21:00 +13°C° 0.2 mm 1 mps 610 mmHg 93%
22:00 +13°C° 0.1 mm 1 mps 610 mmHg 92%
23:00 +13°C° 0.1 mm 1 mps 610 mmHg 92%

16 July, Thursday

Time Temperature Precipitation Wind Pressure Humidity
00:00 +13°C° 0.1 mm 1 mps 609 mmHg 91%
01:00 +13°C° 0 mm 1 mps 609 mmHg 90%
02:00 +12°C° 0 mm 1 mps 609 mmHg 89%
03:00 +12°C° 0 mm 1 mps 609 mmHg 89%
04:00 +12°C° 0 mm 1 mps 609 mmHg 86%
05:00 +13°C° 0 mm 1 mps 609 mmHg 84%
06:00 +13°C° 0 mm 1 mps 609 mmHg 82%
07:00 +14°C° 0 mm 1 mps 610 mmHg 77%
08:00 +16°C° 0 mm 1 mps 610 mmHg 72%
09:00 +17°C° 0 mm 2 mps 611 mmHg 66%
10:00 +18°C° 0.1 mm 2 mps 611 mmHg 64%
11:00 +19°C° 0.1 mm 2 mps 611 mmHg 62%
12:00 +19°C° 0.1 mm 2 mps 611 mmHg 60%
13:00 +19°C° 0.4 mm 2 mps 611 mmHg 61%
14:00 +19°C° 0.4 mm 2 mps 610 mmHg 61%
15:00 +19°C° 0.4 mm 2 mps 610 mmHg 61%
16:00 +18°C° 0.5 mm 2 mps 610 mmHg 66%
17:00 +17°C° 0.5 mm 2 mps 609 mmHg 70%
18:00 +16°C° 0.5 mm 2 mps 609 mmHg 74%
19:00 +15°C° 1.1 mm 2 mps 608 mmHg 78%
20:00 +14°C° 1.1 mm 1 mps 608 mmHg 82%
21:00 +13°C° 1.1 mm 1 mps 607 mmHg 86%
22:00 +13°C° 0.6 mm 1 mps 607 mmHg 86%
23:00 +13°C° 0.6 mm 1 mps 607 mmHg 86%
Show more